Showing default

COSMOS 2466 (GLONASS), 37137

Orbit data source: Space-Track

COSMOS 2466 (GLONASS), 37137 is a Commonwealth of Independent States-origin payload satellite in MEO that was launched on Thu, 02 Sep 2010 UTC via a PROTON-M/DM-2 launch vehicle from the Tyuratam Missile And Space Complex (TTMTR). Payloads include a variety of satellites, spacecraft, and rockets equipped with specific instruments for various scientific and technological missions. These include communications satellites like Starlink; space stations such as the ISS; scientific satellites like the Hubble; Earth observation satellites from companies like Planet Labs, Umbra, and HawkEye 360; GPS; miniature CubeSats for education and research; and military/defense satellites.

Loading next visibility...
COSMOS 2466 (GLONASS) details
Identifier
37137, 2010-041A
Orbit
MEO
Last TLE update4 days ago
Origin
Flag of CISKVR/IACG (CIS)
ManufacturerResehetnev ISS
MissionNon-operational Defense Navigation
Bus & MotorURAGAN, Unknown motor
Mass1,450 kg wet, ~1,200 kg dry
Launch date (UTC)
2010-09-02 (14 years ago)
Launch vehicle
PROTON-M/DM-2
Launch site
Tyuratam Missile And Space Complex (TTMTR)
Object type
Payload
Rocket body
Debris
Shape & HBRCyl + 1 Ant + 2 Pan, 7.8 m
Radar Cross Section8.467 m², Large (>1 m²)

Expand to show TLE details & history

TLE from 4 days ago
0 COSMOS 2466 (GLONASS)
1 37137U 10041A   25020.66281861  .00000098  00000-0  00000-0 0  9991
2 37137  63.8942 207.6494 0016974 167.3641 195.6266  2.13113169111928
Epoch: 2025-01-20T15:54Z
Definitive object data (Epoch: 2025-01-20T15:54:27.527Z)
Latitude2.62438°
Longitude-149.95508°
Altitude19,170.917 km
Speed3.947 km/s
True Right ascension13h 55m 45s
True Declination2° 37' 12"
Sunlit
Object was in daylight at TLE epoch
Visualization TLE readout
Latitude27.88945°
Longitude13.60058°
Altitude19,089.516 km
Speed3.96 km/s
Apparent Right ascension01h 20m 18s
Apparent Declination16° 37' 14"
Sunlit
Object is in daylight
Visualization observer readout
Local Sidereal Time15:49:40
Azimuth39.373° NE
Elevation-23.627°
Doppler factor1
Orbital elements
Apogee altitude19,171.945 km
Perigee altitude19,085.355 km
Semi-major axis25,506.787 km
Eccentricity0.0016974
Inclination63.8942°
RAAN207.6494°
Arg. of periapsis167.3641°
True anomaly195.57431°
Mean anomaly195.6266°
Eccentric anomaly195.60045°
Mean motion0.53279 °/min
BSTARUnknown
Orbital period675.68 mins
Loading maneuver chart data...
Loading historical data...
Loading historical data...
Loading historical data...
Loading historical data...
Loading historical data...
Loading historical data...
Loading historical data...

COSMOS 2466 (GLONASS) Visibility forecast

Observer location: undefined°, undefined

Span
Click to sort rows by Start time (UTC) header in descending order
Start Az.
Max El. time (UTC)
Max El. Az.
Max El.
End time (UTC)
End Az.
237 mins2025-01-24 23:26:28.574Z327.49° NNW2025-01-25 01:24:28.574Z280.198° WNW38.75°2025-01-25 03:23:28.574Z216.379° SW
169 mins2025-01-25 08:35:28.574Z105.882° ESE2025-01-25 10:01:28.574Z62.298° ENE26.451°2025-01-25 11:24:28.574Z25.781° NE
|